Meteo Giornale » Osservazioni meteo Italia » Genova-Sestri

ore: 00:50 - Osservazioni Meteo Genova-Sestri
Lat. 44° 25' N Lon. 8° 51' E Alt. 2 metri s.l.m.

sereno Europe/Rome

19 °C

Sereno

Temp. 24 Ore

19 °C

23 °C

Nord/Nord-Est

7.4 Km/h

Dew point 16 °C

Umidità 82 %

Visibilità  10 Km

Il sole sorge alle ore 05:37

Il sole tramonta alle ore 21:13

Data e Ora Cielo e Fenomeni T °C DP °C Um. % Pres. hPa Vis. km Vento km/h
Oggi h: 00:50 sereno Sereno 19 16 82 1015 10 N/NE 7.4
Oggi h: 00:20 sereno Sereno 20 16 77 1015 10 N/NE 7.4
Ieri h: 23:50 sereno Sereno 20 16 77 1015 10 N/NE 9.3
Ieri h: 23:20 sereno Sereno 20 16 77 1015 10 N/NE 7.4
Ieri h: 22:50 sereno Sereno 21 17 77 1015 10 N 5.5
Ieri h: 22:20 sereno Sereno 21 17 77 1015 10 N 5.5
Ieri h: 21:50 sereno Sereno 21 17 77 1015 10 O 7.4
Ieri h: 21:20 sereno Sereno 21 16 73 1014 10 O/SO 7.4
Ieri h: 20:50 sereno Sereno 21 16 73 1014 10 N 5.5
Ieri h: 20:20 sereno Sereno 22 17 73 1014 10 N 5.5
Ieri h: 19:50 sereno Sereno 22 17 73 1015 10 N 5.5
Ieri h: 19:20 sereno Sereno 22 17 73 1015 10 SO 7.4
Ieri h: 18:50 sereno Sereno 22 17 73 1015 10 S/SO 7.4
Ieri h: 18:20 sereno Sereno 22 17 73 1015 10 O/SO 7.4
Ieri h: 17:50 sereno Sereno 23 17 68 1015 10 SO 9.3
Ieri h: 17:20 sereno Sereno 23 16 64 1015 10 S/SO 9.3
Ieri h: 16:50 sereno Sereno 23 16 64 1015 10 S/SO 9.3
Ieri h: 16:20 sereno Sereno 23 16 64 1016 10 S/SO 9.3
Ieri h: 15:50 nuvoloso Nuvoloso 23 16 64 1016 10 S/SO 9.3
Ieri h: 15:20 molto_nuvoloso Molto Nuvoloso 23 16 64 1016 10 S 9.3
Ieri h: 14:50 nuvoloso Nuvoloso 23 17 68 1016 10 SO 11.1
Ieri h: 14:20 nuvoloso Nuvoloso 23 16 64 1016 10 S/SO 11.1
Ieri h: 13:50 nuvoloso Nuvoloso 23 16 64 1016 10 SO 11.1
Ieri h: 13:20 nuvoloso Nuvoloso 23 16 64 1016 10 SO 9.3
Ieri h: 12:50 molto_nuvoloso Molto Nuvoloso 22 16 68 1017 10 N 5.5
Ieri h: 12:20 molto_nuvoloso Molto Nuvoloso 22 16 68 1017 10 N 5.5
Ieri h: 11:50 molto_nuvoloso Molto Nuvoloso 21 17 77 1017 10 N 5.5
Ieri h: 11:20 molto_nuvoloso Molto Nuvoloso 21 17 77 1017 10 N 5.5
Ieri h: 10:50 molto_nuvoloso Molto Nuvoloso 21 17 77 1017 10 N 5.5
Ieri h: 10:20 molto_nuvoloso Molto Nuvoloso 21 17 77 1016 10 N 5.5
Ieri h: 09:50 molto_nuvoloso Molto Nuvoloso 21 17 77 1016 10 N 5.5
Ieri h: 09:20 molto_nuvoloso Molto Nuvoloso 21 17 77 1016 10 N 5.5
Ieri h: 08:50 molto_nuvoloso Molto Nuvoloso 21 17 77 1016 10 N 5.5
Ieri h: 08:20 molto_nuvoloso Molto Nuvoloso 21 17 77 1016 10 N 5.5
Ieri h: 07:50 molto_nuvoloso Molto Nuvoloso 20 17 82 1016 10 N 5.5
Ieri h: 07:20 molto_nuvoloso Molto Nuvoloso 20 17 82 1015 10 O/SO 7.4
Ieri h: 06:50 nuvoloso Nuvoloso 20 17 82 1015 10 N 5.5
Ieri h: 06:20 nuvoloso Nuvoloso 20 17 82 1015 10 N 5.5
Ieri h: 05:50 nuvoloso Nuvoloso 20 17 82 1015 10 N 3.7
Ieri h: 05:20 nuvoloso Nuvoloso 20 17 82 1015 10 N 3.7
Ieri h: 04:50 molto_nuvoloso Molto Nuvoloso 20 17 82 1015 10 N 3.7
Ieri h: 03:50 molto_nuvoloso Molto Nuvoloso 20 17 82 1015 10 S/SE 7.4
Ieri h: 02:50 molto_nuvoloso Molto Nuvoloso 20 17 82 1016 10 N 5.5
Ieri h: 01:50 molto_nuvoloso Molto Nuvoloso 20 17 82 1016 10 N 5.5